Location: Luz Observatory
(34.5000°N, 117.2833°W)
Time: 18:52:34
(UTC-07:00)

Daily predictions for brighter satellites

Satellite Brightness Start Highest point End
(mag) Time Altitude Azimuth Time Altitude Azimuth Time Altitude Azimuth
Atlas Centaur 2 1.9 20:32:45 10° WSW 20:36:24 36° SSW 20:39:43 10° ESE
CZ-4B DEB 4.2 20:37:25 10° ESE 20:39:41 20° ENE 20:41:57 10° NNE
Okean 3 Rocket 4.0 20:39:32 10° SSE 20:43:49 46° E 20:48:05 10° NNE
Cosmos 2333 Rocket 3.6 20:41:21 10° NW 20:46:30 37° WSW 20:51:37 10° S
Cosmos 1741 Rocket 4.0 20:44:24 10° SSW 20:49:43 85° ESE 20:55:03 10° NNE
SJ-11-01 4.5 20:46:56 10° SSE 20:51:35 59° ENE 20:56:16 10° N
NOSS 3-4 (A) 4.0 20:44:36 10° NNW 20:51:47 82° WSW 20:59:24 10° SSE
NOSS 3-4 (C) 4.0 20:44:41 10° NNW 20:51:52 83° WSW 20:59:30 10° SSE
H-2A R/B 4.2 20:50:32 10° ENE 20:52:02 11° ENE 20:53:34 10° NE
Helios 1B rocket 2.4 20:48:18 10° NNE 20:52:25 66° ESE 20:56:31 10° S
Spot 2 Rocket 4.2 20:47:42 10° S 20:52:38 56° W 20:57:37 10° NNW
YAOGAN 6 3.4 20:49:54 10° SE 20:53:09 35° ENE 20:56:31 10° N
Cosmos 2084 4.4 20:50:52 10° SW 20:54:48 48° NW 20:58:34 10° NNE
Cosmos 1818 3.7 20:55:01 10° NNW 21:00:25 63° ENE 21:05:03 14° SE
Meteor 2-1 Rocket 4.3 20:55:38 10° N 21:01:26 87° W 21:07:05 10° S
Helios 1A 2.9 20:58:25 10° SSE 21:02:32 76° ENE 21:06:41 10° N
Cosmos 1726 4.0 21:02:46 10° NE 21:04:50 14° ENE 21:06:02 13° E
GPS 2-05 Rocket1 2.7 21:01:52 10° WSW 21:04:51 48° SSE 21:07:28 13° E
Cosmos 2297 Rocket 4.5 21:01:07 10° WSW 21:05:55 28° WNW 21:10:45 10° N
Delta 2 Rocket 4.2 21:00:34 10° WSW 21:06:03 60° SSE 21:11:45 10° E
USA 186 3.9 21:11:12 10° SW 21:12:37 15° W 21:14:02 10° WNW
Cosmos 2263 Rocket 3.4 21:10:47 16° SE 21:13:00 20° E 21:16:57 10° NE
Cosmos 1356 Rocket 3.4 21:09:52 10° S 21:14:05 77° E 21:18:23 10° NNE
Meteor 1-29 3.1 21:11:21 10° N 21:14:47 76° WNW 21:18:13 10° SSW
ATLAS 5 CENTAUR R/B 3.8 21:10:42 10° WSW 21:14:51 32° NW 21:19:18 10° NNE
Resurs 01 Rocket 3.8 21:12:23 10° SSW 21:15:53 23° W 21:19:24 10° NW
Envisat 3.6 21:12:25 10° S 21:17:22 55° W 21:22:21 10° NNW
SPOT 5 4.2 21:14:52 16° ESE 21:17:32 26° ENE 21:21:39 10° NNE
Lacrosse 5 3.1 21:14:23 10° NNW 21:18:52 31° NE 21:22:21 15° E
CZ-3B R/B 3.8 21:18:18 10° SW 21:20:49 68° NW 21:28:02 10° NE
SL-14 R/B 4.4 21:20:14 21° ESE 21:21:27 25° E 21:24:43 10° NE
Meteor 1-21 Rocket 4.2 21:21:44 10° S 21:27:26 87° W 21:33:03 10° N
Cosmos 220 Rocket 4.3 21:24:42 15° S 21:28:03 45° ESE 21:32:14 10° NNE
RESURS DK-1 3.3 21:26:11 10° N 21:29:59 33° ENE 21:31:40 24° ESE
SAR-Lupe-4 3.8 21:27:27 17° S 21:30:05 65° WSW 21:33:40 10° NNW
Cosmos 2208 Rocket 4.1 21:28:57 10° NNW 21:34:19 79° WSW 21:38:17 19° S
Cosmos 1674 3.6 21:31:48 10° SSW 21:35:27 48° W 21:39:06 10° N
Cosmos 1459 Rocket 3.9 21:29:12 10° N 21:35:30 85° E 21:40:30 16° S
Cosmos 2237 Rocket 4.5 21:34:41 10° WNW 21:38:27 18° W 21:42:11 10° SW
Cosmos 1939 Rocket 4.5 21:35:49 10° SSW 21:39:24 32° W 21:43:03 10° NNW
OAO 1 Rocket 4.5 21:36:27 10° W 21:41:50 84° N 21:46:02 17° E
Cosmos 2100 Rocket 4.2 21:38:13 10° N 21:44:32 76° W 21:50:01 14° S
MetOp-A 4.1 21:42:06 25° SSE 21:45:19 75° ENE 21:50:40 10° N
Cosmos 1242 Rocket 3.2 21:42:17 10° NNW 21:45:55 53° W 21:48:02 22° SSW
SPOT 1/Viking Rocket 4.3 21:44:45 27° ESE 21:46:44 37° ENE 21:51:26 10° N
Terra 3.6 21:46:09 15° E 21:47:16 16° ENE 21:50:11 10° NNE
Cosmos 1603 3.8 21:42:39 10° NNW 21:48:15 63° ENE 21:50:55 31° SE
ARGOS 3.2 21:46:58 29° SE 21:49:43 63° ENE 21:55:04 10° N
Cosmos 2123 Rocket 3.9 21:45:42 19° S 21:50:14 69° E 21:56:24 10° NNE
Cosmos 1408 Rocket 3.9 21:47:39 13° SSW 21:51:28 63° W 21:55:45 10° N
Cosmos 1908 4.3 21:48:47 10° NNW 21:52:26 40° W 21:54:56 18° SSW
Cosmos 2173 Rocket 4.2 21:46:23 10° N 21:52:31 71° W 21:57:30 17° S
Cosmos 332 Rocket 3.9 21:49:49 10° N 21:54:41 61° ENE 21:56:24 38° SE
Cosmos 2061 Rocket 4.2 21:48:45 10° N 21:55:09 75° W 22:00:00 18° S
Cosmos 2151 3.6 21:56:00 35° E 21:56:15 36° E 22:00:11 10° NNE
Tiangong 1 3.4 21:59:37 10° NW 22:01:33 17° N 22:02:40 14° NE
Cosmos 2221 4.5 21:58:13 10° NNW 22:01:52 26° W 22:05:29 10° SW
Cosmos 1943 3.9 21:56:51 10° N 22:02:09 39° ENE 22:04:01 31° ESE
SL-16 R/B 3.8 21:59:46 10° NW 22:04:33 29° WSW 22:08:51 12° SSW
ERS-1 Rocket 3.5 22:01:49 22° S 22:04:53 53° W 22:09:48 10° NNW
Cosmos 468 Rocket 3.9 22:01:30 10° NNW 22:06:38 82° WSW 22:08:36 39° S
USA 234 3.2 22:01:12 10° NE 22:07:46 89° NW 22:14:19 10° SW
Abrixas 4.1 22:07:31 10° W 22:10:00 32° NNW 22:11:56 14° NNE
Cosmos 1500 Rocket 3.5 22:11:28 53° SSE 22:12:23 72° E 22:16:51 10° N
Cosmos 1725 Rocket 3.9 22:10:49 10° N 22:17:04 89° E 22:19:46 36° S
Cosmos 1503 Rocket 4.1 22:16:52 49° SE 22:17:33 52° ESE 22:22:33 10° NNE
Cosmos 1703 3.8 22:23:55 46° ENE 22:23:55 46° ENE 22:27:09 10° NNE
CARTOSAT-1 4.4 22:23:32 36° ENE 22:23:32 36° ENE 22:27:26 10° N
Sakura Rocket 4.2 22:17:59 10° W 22:25:47 50° S 22:26:59 45° SSE
H-2A R/B 2.1 22:29:11 50° S 22:30:37 83° WSW 22:36:05 10° NNW
IGS 5A 4.2 22:32:08 41° ENE 22:32:08 41° ENE 22:35:41 10° N
Cosmos 1626 2.7 22:33:18 50° NNE 22:33:18 50° NNE 22:36:10 10° N
ERBS 3.3 22:29:50 10° NW 22:32:23 46° NNW 22:32:23 46° NNW
Cosmos 1328 Rocket 4.2 22:33:14 10° NNW 22:37:22 46° W 22:38:07 41° WSW
Milstar 3 Cent rocket 4.4 22:30:13 10° W 22:37:52 37° SSW 22:41:28 32° SSE
Cosmos 1726 3.9 22:37:06 10° NW 22:40:08 24° W 22:40:39 24° WSW
Cosmos 1151 Rocket 2.9 22:35:57 10° N 22:40:20 85° W 22:40:20 85° W
CZ-4C R/B 3.0 22:45:00 33° ENE 22:45:00 33° ENE 22:48:39 10° NE
Cosmos 371 Rocket 3.8 22:39:17 10° NNW 22:43:56 50° WSW 22:44:36 46° SW
H-2A R/B 2.7 22:44:58 44° NE 22:44:58 44° NE 22:48:31 10° N
Cosmos 1515 Rocket 3.9 22:40:30 10° NNW 22:44:44 55° W 22:44:59 53° WSW
Delta 2 Rocket 4.1 22:43:10 10° W 22:48:57 82° N 22:51:00 42° ENE
Cosmos 1300 4.4 22:47:31 10° NW 22:50:42 25° W 22:51:00 25° W
Abrixas rocket 4.4 22:51:37 10° NW 22:53:13 26° NW 22:53:13 26° NW
SPOT 5 4.3 22:54:06 26° SW 22:55:25 29° W 22:59:47 10° NW
Cosmos 2263 Rocket 3.1 22:52:22 16° SW 22:56:31 44° WNW 23:01:51 10° N
Cosmos 2058 4.0 23:00:15 38° W 23:00:29 39° W 23:04:27 10° N
Lacrosse 5 2.8 22:57:12 10° NW 23:01:33 37° WSW 23:01:33 37° WSW
Meteor 1-27 4.5 22:56:23 10° NNW 23:02:06 62° W 23:03:05 53° SW
Cosmos 2233 Rocket 4.3 23:01:30 10° NNW 23:07:31 57° W 23:08:57 46° SW
COSMOS 2406 4.5 23:10:24 10° N 23:15:14 28° ENE 23:15:37 28° ENE
Cosmos 841 Rocket 4.2 23:10:23 10° NNW 23:15:19 42° WSW 23:15:25 42° WSW
Cosmos 1455 3.9 23:20:08 10° NNW 23:22:25 32° NW 23:22:25 32° NW
Terra 2.7 23:25:03 43° W 23:25:03 43° W 23:29:09 10° NNW
Sich 1 4.2 23:28:19 39° N 23:28:19 39° N 23:31:04 10° N
Cosmos 1844 Rocket 3.1 23:30:40 53° NE 23:30:40 53° NE 23:35:03 10° NNE
Cosmos 1513 Rocket 4.4 23:38:30 10° N 23:44:34 80° WNW 23:44:34 80° WNW
ALOS 2 4.5 23:46:33 24° NE 23:46:33 24° NE 23:48:53 10° NNE
